Time,TemperatureF,DewpointF,PressureIn,WindDirection,WindDirectionDegrees,WindSpeedMPH,WindSpeedGustMPH,Humidity,HourlyPrecipIn,Conditions,Clouds,dailyrainin,SoftwareType,DateUTC
2014-02-13 00:05:00,58.6,18.7,29.92,NW,311,1.0,2.0,21,0.00,,,0.00,Wunderground v.1.15,2014-02-13 07:05:00,
2014-02-13 00:10:00,59.2,19.2,29.92,NW,318,1.0,1.0,21,0.00,,,0.00,Wunderground v.1.15,2014-02-13 07:10:00,
2014-02-13 00:20:00,58.9,19.0,29.92,NNW,340,1.0,1.0,21,0.00,,,0.00,Wunderground v.1.15,2014-02-13 07:20:00,
2014-02-13 00:25:00,58.7,19.9,29.92,NNW,328,1.0,1.0,22,0.00,,,0.00,Wunderground v.1.15,2014-02-13 07:25:00,
2014-02-13 00:30:00,58.5,19.7,29.92,NW,326,1.0,1.0,22,0.00,,,0.00,Wunderground v.1.15,2014-02-13 07:30:00,
2014-02-13 00:35:00,58.8,20.0,29.92,WNW,287,1.0,1.0,22,0.00,,,0.00,Wunderground v.1.15,2014-02-13 07:35:00,
2014-02-13 00:40:00,58.9,20.1,29.92,WNW,288,1.0,1.0,22,0.00,,,0.00,Wunderground v.1.15,2014-02-13 07:40:00,
2014-02-13 00:45:00,58.9,20.1,29.92,NW,316,0.0,1.0,22,0.00,,,0.00,Wunderground v.1.15,2014-02-13 07:45:00,
2014-02-13 00:50:00,58.9,20.1,29.92,NW,316,0.0,0.0,22,0.00,,,0.00,Wunderground v.1.15,2014-02-13 07:50:00,
2014-02-13 00:55:00,58.7,19.9,29.92,NW,316,0.0,0.0,22,0.00,,,0.00,Wunderground v.1.15,2014-02-13 07:55:00,
2014-02-13 01:00:00,58.8,20.0,29.92,NW,316,0.0,0.0,22,0.00,,,0.00,Wunderground v.1.15,2014-02-13 08:00:00,
2014-02-13 01:05:00,59.0,20.2,29.92,North,3,0.0,1.0,22,0.00,,,0.00,Wunderground v.1.15,2014-02-13 08:05:00,
2014-02-13 01:10:00,59.2,19.2,29.92,North,350,1.0,2.0,21,0.00,,,0.00,Wunderground v.1.15,2014-02-13 08:10:00,
2014-02-13 01:15:00,59.2,20.3,29.92,NNW,333,1.0,2.0,22,0.00,,,0.00,Wunderground v.1.15,2014-02-13 08:15:00,
2014-02-13 01:25:00,59.1,21.3,29.92,NW,304,0.0,1.0,23,0.00,,,0.00,Wunderground v.1.15,2014-02-13 08:25:00,
2014-02-13 01:35:00,58.5,20.8,29.92,NNW,328,1.0,3.0,23,0.00,,,0.00,Wunderground v.1.15,2014-02-13 08:35:00,
2014-02-13 01:40:00,58.6,19.8,29.92,NW,318,2.0,6.0,22,0.00,,,0.00,Wunderground v.1.15,2014-02-13 08:40:00,
2014-02-13 01:45:00,58.7,19.9,29.92,NNW,333,3.0,6.0,22,0.00,,,0.00,Wunderground v.1.15,2014-02-13 08:45:00,
2014-02-13 01:50:00,59.0,20.2,29.92,NNW,337,3.0,5.0,22,0.00,,,0.00,Wunderground v.1.15,2014-02-13 08:50:00,
2014-02-13 02:00:00,59.3,19.3,29.92,NNW,333,5.0,5.0,21,0.00,,,0.00,Wunderground v.1.15,2014-02-13 09:00:00,
2014-02-13 02:05:00,59.6,19.6,29.92,NNW,342,4.0,5.0,21,0.00,,,0.00,Wunderground v.1.15,2014-02-13 09:05:00,
2014-02-13 02:10:00,60.1,18.8,29.92,NNW,328,4.0,5.0,20,0.00,,,0.00,Wunderground v.1.15,2014-02-13 09:10:00,
2014-02-13 02:15:00,60.8,19.4,29.92,NNW,335,4.0,5.0,20,0.00,,,0.00,Wunderground v.1.15,2014-02-13 09:15:00,
2014-02-13 02:20:00,60.9,19.5,29.92,NW,323,4.0,4.0,20,0.00,,,0.00,Wunderground v.1.15,2014-02-13 09:20:00,
2014-02-13 02:30:00,61.0,19.6,29.92,NNW,338,5.0,9.0,20,0.00,,,0.00,Wunderground v.1.15,2014-02-13 09:30:00,
2014-02-13 02:35:00,60.6,19.3,29.91,NW,326,7.0,9.0,20,0.00,,,0.00,Wunderground v.1.15,2014-02-13 09:35:00,
2014-02-13 02:40:00,60.0,18.8,29.91,NNW,345,7.0,7.0,20,0.00,,,0.00,Wunderground v.1.15,2014-02-13 09:40:00,
2014-02-13 02:45:00,59.2,19.2,29.91,NW,311,4.0,7.0,21,0.00,,,0.00,Wunderground v.1.15,2014-02-13 09:45:00,
2014-02-13 02:50:00,59.1,19.1,29.91,North,1,3.0,9.0,21,0.00,,,0.00,Wunderground v.1.15,2014-02-13 09:50:00,
2014-02-13 02:55:00,59.0,19.1,29.91,NNW,332,6.0,9.0,21,0.00,,,0.00,Wunderground v.1.15,2014-02-13 09:55:00,
2014-02-13 03:05:00,58.8,18.9,29.91,NW,308,4.0,6.0,21,0.00,,,0.00,Wunderground v.1.15,2014-02-13 10:05:00,
2014-02-13 03:10:00,59.1,19.1,29.91,NNW,340,2.0,2.0,21,0.00,,,0.00,Wunderground v.1.15,2014-02-13 10:10:00,
2014-02-13 03:15:00,59.1,19.1,29.91,North,349,2.0,2.0,21,0.00,,,0.00,Wunderground v.1.15,2014-02-13 10:15:00,
2014-02-13 03:20:00,58.5,19.7,29.91,WSW,249,2.0,4.0,22,0.00,,,0.00,Wunderground v.1.15,2014-02-13 10:20:00,
2014-02-13 03:25:00,56.6,21.1,29.91,WSW,238,3.0,5.0,25,0.00,,,0.00,Wunderground v.1.15,2014-02-13 10:25:00,
2014-02-13 03:30:00,56.0,21.6,29.91,WSW,245,4.0,4.0,26,0.00,,,0.00,Wunderground v.1.15,2014-02-13 10:30:00,
2014-02-13 03:35:00,56.0,21.6,29.91,West,271,3.0,4.0,26,0.00,,,0.00,Wunderground v.1.15,2014-02-13 10:35:00,
2014-02-13 03:45:00,55.7,21.3,29.90,WNW,295,2.0,3.0,26,0.00,,,0.00,Wunderground v.1.15,2014-02-13 10:45:00,
2014-02-13 03:50:00,55.3,21.0,29.90,WNW,283,2.0,2.0,26,0.00,,,0.00,Wunderground v.1.15,2014-02-13 10:50:00,
2014-02-13 03:55:00,55.1,21.7,29.90,NW,314,3.0,3.0,27,0.00,,,0.00,Wunderground v.1.15,2014-02-13 10:55:00,
2014-02-13 04:00:00,55.3,21.8,29.90,WNW,288,3.0,3.0,27,0.00,,,0.00,Wunderground v.1.15,2014-02-13 11:00:00,
2014-02-13 04:05:00,55.1,21.7,29.89,WNW,288,3.0,3.0,27,0.00,,,0.00,Wunderground v.1.15,2014-02-13 11:05:00,
2014-02-13 04:15:00,55.2,20.9,29.89,WNW,288,0.0,1.0,26,0.00,,,0.00,Wunderground v.1.15,2014-02-13 11:15:00,
2014-02-13 04:20:00,55.7,20.4,29.89,West,264,1.0,1.0,25,0.00,,,0.00,Wunderground v.1.15,2014-02-13 11:20:00,
2014-02-13 04:25:00,56.6,20.2,29.89,WNW,287,1.0,2.0,24,0.00,,,0.00,Wunderground v.1.15,2014-02-13 11:25:00,
2014-02-13 04:30:00,56.5,21.1,29.89,WSW,257,1.0,1.0,25,0.00,,,0.00,Wunderground v.1.15,2014-02-13 11:30:00,
2014-02-13 04:35:00,56.3,21.8,29.90,WSW,250,1.0,1.0,26,0.00,,,0.00,Wunderground v.1.15,2014-02-13 11:35:00,
2014-02-13 04:45:00,56.6,21.1,29.90,WNW,299,3.0,5.0,25,0.00,,,0.00,Wunderground v.1.15,2014-02-13 11:45:00,
2014-02-13 04:50:00,56.7,22.2,29.89,NW,304,4.0,4.0,26,0.00,,,0.00,Wunderground v.1.15,2014-02-13 11:50:00,
2014-02-13 04:55:00,56.7,22.2,29.89,West,274,3.0,4.0,26,0.00,,,0.00,Wunderground v.1.15,2014-02-13 11:55:00,
2014-02-13 05:00:00,56.2,21.7,29.89,West,277,2.0,2.0,26,0.00,,,0.00,Wunderground v.1.15,2014-02-13 12:00:00,
2014-02-13 05:10:00,55.9,21.5,29.89,WSW,241,1.0,3.0,26,0.00,,,0.00,Wunderground v.1.15,2014-02-13 12:10:00,
2014-02-13 05:15:00,56.5,22.0,29.89,West,264,3.0,3.0,26,0.00,,,0.00,Wunderground v.1.15,2014-02-13 12:15:00,
2014-02-13 05:25:00,55.8,22.3,29.89,WNW,295,3.0,4.0,27,0.00,,,0.00,Wunderground v.1.15,2014-02-13 12:25:00,
2014-02-13 05:30:00,55.5,22.0,29.90,WNW,287,3.0,3.0,27,0.00,,,0.00,Wunderground v.1.15,2014-02-13 12:30:00,
2014-02-13 05:35:00,55.2,21.8,29.89,WNW,292,3.0,3.0,27,0.00,,,0.00,Wunderground v.1.15,2014-02-13 12:35:00,
2014-02-13 05:40:00,55.1,22.5,29.90,WNW,295,3.0,3.0,28,0.00,,,0.00,Wunderground v.1.15,2014-02-13 12:40:00,
2014-02-13 05:45:00,55.3,22.7,29.90,WNW,290,4.0,4.0,28,0.00,,,0.00,Wunderground v.1.15,2014-02-13 12:45:00,
2014-02-13 05:55:00,55.9,22.4,29.90,WNW,287,3.0,4.0,27,0.00,,,0.00,Wunderground v.1.15,2014-02-13 12:55:00,
2014-02-13 06:00:00,55.8,22.3,29.90,WNW,290,3.0,3.0,27,0.00,,,0.00,Wunderground v.1.15,2014-02-13 13:00:00,
2014-02-13 06:05:00,55.6,22.1,29.91,WNW,297,3.0,4.0,27,0.00,,,0.00,Wunderground v.1.15,2014-02-13 13:05:00,
2014-02-13 06:10:00,55.7,22.2,29.91,West,267,3.0,3.0,27,0.00,,,0.00,Wunderground v.1.15,2014-02-13 13:10:00,
2014-02-13 06:15:00,56.8,22.2,29.91,West,267,3.0,3.0,26,0.00,,,0.00,Wunderground v.1.15,2014-02-13 13:15:00,
2014-02-13 06:20:00,56.9,22.3,29.91,WNW,283,3.0,3.0,26,0.00,,,0.00,Wunderground v.1.15,2014-02-13 13:20:00,
2014-02-13 06:25:00,56.8,22.2,29.92,WNW,298,3.0,4.0,26,0.00,,,0.00,Wunderground v.1.15,2014-02-13 13:25:00,
2014-02-13 06:30:00,55.8,22.3,29.92,WNW,300,4.0,5.0,27,0.00,,,0.00,Wunderground v.1.15,2014-02-13 13:30:00,
2014-02-13 06:35:00,55.3,21.8,29.92,WNW,298,4.0,5.0,27,0.00,,,0.00,Wunderground v.1.15,2014-02-13 13:35:00,
2014-02-13 06:40:00,55.4,21.9,29.92,WNW,301,4.0,4.0,27,0.00,,,0.00,Wunderground v.1.15,2014-02-13 13:40:00,
2014-02-13 06:45:00,55.2,22.6,29.92,NW,318,2.0,4.0,28,0.00,,,0.00,Wunderground v.1.15,2014-02-13 13:45:00,
2014-02-13 06:55:00,55.7,22.2,29.93,WSW,239,1.0,1.0,27,0.00,,,0.00,Wunderground v.1.15,2014-02-13 13:55:00,
2014-02-13 07:00:00,56.1,22.5,29.93,West,259,0.0,0.0,27,0.00,,,0.00,Wunderground v.1.15,2014-02-13 14:00:00,
2014-02-13 07:10:00,55.1,22.5,29.93,NW,319,1.0,2.0,28,0.00,,,0.00,Wunderground v.1.15,2014-02-13 14:10:00,
2014-02-13 07:15:00,54.4,22.8,29.93,NW,323,2.0,2.0,29,0.00,,,0.00,Wunderground v.1.15,2014-02-13 14:15:00,
2014-02-13 07:20:00,54.2,22.6,29.93,NW,304,2.0,2.0,29,0.00,,,0.00,Wunderground v.1.15,2014-02-13 14:20:00,
2014-02-13 07:25:00,54.9,22.4,29.94,NNW,332,2.0,2.0,28,0.00,,,0.00,Wunderground v.1.15,2014-02-13 14:25:00,
2014-02-13 07:35:00,55.9,23.2,29.94,NW,318,2.0,4.0,28,0.00,,,0.00,Wunderground v.1.15,2014-02-13 14:35:00,
2014-02-13 07:40:00,56.5,22.9,29.94,NNW,334,3.0,3.0,27,0.00,,,0.00,Wunderground v.1.15,2014-02-13 14:40:00,
2014-02-13 07:45:00,56.8,23.1,29.94,NNW,342,4.0,5.0,27,0.00,,,0.00,Wunderground v.1.15,2014-02-13 14:45:00,
2014-02-13 07:50:00,57.6,22.9,29.94,NNW,332,4.0,4.0,26,0.00,,,0.00,Wunderground v.1.15,2014-02-13 14:50:00,
2014-02-13 07:55:00,58.2,22.5,29.94,NNW,334,4.0,4.0,25,0.00,,,0.00,Wunderground v.1.15,2014-02-13 14:55:00,
2014-02-13 08:00:00,58.8,23.0,29.94,NNW,330,3.0,3.0,25,0.00,,,0.00,Wunderground v.1.15,2014-02-13 15:00:00,
2014-02-13 08:05:00,59.6,23.7,29.94,North,354,3.0,3.0,25,0.00,,,0.00,Wunderground v.1.15,2014-02-13 15:05:00,
2014-02-13 08:10:00,60.1,23.1,29.94,NNW,338,2.0,2.0,24,0.00,,,0.00,Wunderground v.1.15,2014-02-13 15:10:00,
2014-02-13 08:15:00,60.6,22.6,29.94,NNW,347,2.0,2.0,23,0.00,,,0.00,Wunderground v.1.15,2014-02-13 15:15:00,
2014-02-13 08:20:00,61.0,23.9,29.94,North,359,2.0,2.0,24,0.00,,,0.00,Wunderground v.1.15,2014-02-13 15:20:00,
2014-02-13 08:25:00,62.0,23.7,29.94,NNW,347,2.0,2.0,23,0.00,,,0.00,Wunderground v.1.15,2014-02-13 15:25:00,
2014-02-13 08:35:00,64.1,23.3,29.94,East,87,0.0,1.0,21,0.00,,,0.00,Wunderground v.1.15,2014-02-13 15:35:00,
2014-02-13 08:40:00,64.6,23.7,29.94,East,87,0.0,0.0,21,0.00,,,0.00,Wunderground v.1.15,2014-02-13 15:40:00,
2014-02-13 08:45:00,65.1,21.8,29.94,East,87,0.0,0.0,19,0.00,,,0.00,Wunderground v.1.15,2014-02-13 15:45:00,
2014-02-13 08:50:00,66.5,21.6,29.95,SE,130,0.0,1.0,18,0.00,,,0.00,Wunderground v.1.15,2014-02-13 15:50:00,
2014-02-13 08:55:00,66.5,21.6,29.95,SE,131,1.0,2.0,18,0.00,,,0.00,Wunderground v.1.15,2014-02-13 15:55:00,
2014-02-13 09:00:00,66.7,21.8,29.95,ESE,104,1.0,1.0,18,0.00,,,0.00,Wunderground v.1.15,2014-02-13 16:00:00,
2014-02-13 09:05:00,67.1,23.4,29.95,SE,134,1.0,1.0,19,0.00,,,0.00,Wunderground v.1.15,2014-02-13 16:05:00,
2014-02-13 09:15:00,67.2,23.5,29.95,ESE,116,2.0,2.0,19,0.00,,,0.00,Wunderground v.1.15,2014-02-13 16:15:00,
2014-02-13 09:20:00,67.6,23.8,29.95,ESE,110,2.0,2.0,19,0.00,,,0.00,Wunderground v.1.15,2014-02-13 16:20:00,
2014-02-13 09:25:00,67.9,22.8,29.96,SE,124,2.0,2.0,18,0.00,,,0.00,Wunderground v.1.15,2014-02-13 16:25:00,
2014-02-13 09:30:00,68.2,23.0,29.96,ESE,115,2.0,3.0,18,0.00,,,0.00,Wunderground v.1.15,2014-02-13 16:30:00,
2014-02-13 09:40:00,67.9,22.8,29.96,SE,133,3.0,3.0,18,0.00,,,0.00,Wunderground v.1.15,2014-02-13 16:40:00,
2014-02-13 09:45:00,68.1,26.7,29.96,SW,214,2.0,3.0,21,0.00,,,0.00,Wunderground v.1.15,2014-02-13 16:45:00,
2014-02-13 09:50:00,67.3,26.0,29.96,SSW,210,3.0,3.0,21,0.00,,,0.00,Wunderground v.1.15,2014-02-13 16:50:00,
2014-02-13 09:55:00,67.6,26.2,29.96,ESE,115,3.0,3.0,21,0.00,,,0.00,Wunderground v.1.15,2014-02-13 16:55:00,
2014-02-13 10:00:00,67.7,26.3,29.96,SSE,152,3.0,3.0,21,0.00,,,0.00,Wunderground v.1.15,2014-02-13 17:00:00,
2014-02-13 10:05:00,68.4,26.9,29.96,WSW,254,2.0,3.0,21,0.00,,,0.00,Wunderground v.1.15,2014-02-13 17:05:00,
2014-02-13 10:10:00,68.6,25.9,29.96,SSE,160,2.0,4.0,20,0.00,,,0.00,Wunderground v.1.15,2014-02-13 17:10:00,
2014-02-13 10:15:00,68.5,25.8,29.96,SE,142,3.0,4.0,20,0.00,,,0.00,Wunderground v.1.15,2014-02-13 17:15:00,
2014-02-13 10:25:00,68.3,25.6,29.96,SE,146,4.0,5.0,20,0.00,,,0.00,Wunderground v.1.15,2014-02-13 17:25:00,
2014-02-13 10:30:00,68.6,27.1,29.95,SSE,160,4.0,6.0,21,0.00,,,0.00,Wunderground v.1.15,2014-02-13 17:30:00,
2014-02-13 10:35:00,67.9,26.5,29.96,SE,143,5.0,6.0,21,0.00,,,0.00,Wunderground v.1.15,2014-02-13 17:35:00,
2014-02-13 10:45:00,68.3,26.8,29.95,South,172,3.0,5.0,21,0.00,,,0.00,Wunderground v.1.15,2014-02-13 17:45:00,
2014-02-13 10:50:00,68.6,27.1,29.95,SW,222,3.0,3.0,21,0.00,,,0.00,Wunderground v.1.15,2014-02-13 17:50:00,
2014-02-13 11:00:00,69.9,27.0,29.95,South,187,4.0,4.0,20,0.00,,,0.00,Wunderground v.1.15,2014-02-13 18:00:00,
2014-02-13 11:05:00,69.5,26.6,29.95,SE,132,4.0,4.0,20,0.00,,,0.00,Wunderground v.1.15,2014-02-13 18:05:00,
2014-02-13 11:10:00,69.4,26.6,29.95,SE,141,5.0,7.0,20,0.00,,,0.00,Wunderground v.1.15,2014-02-13 18:10:00,
2014-02-13 11:15:00,69.4,26.6,29.95,SW,219,4.0,7.0,20,0.00,,,0.00,Wunderground v.1.15,2014-02-13 18:15:00,
2014-02-13 11:20:00,69.6,26.7,29.95,South,170,4.0,7.0,20,0.00,,,0.00,Wunderground v.1.15,2014-02-13 18:20:00,
2014-02-13 11:25:00,69.7,26.8,29.94,SW,214,5.0,7.0,20,0.00,,,0.00,Wunderground v.1.15,2014-02-13 18:25:00,
2014-02-13 11:35:00,69.8,25.6,29.94,SW,225,6.0,7.0,19,0.00,,,0.00,Wunderground v.1.15,2014-02-13 18:35:00,
2014-02-13 11:40:00,69.9,25.7,29.94,SSW,200,6.0,6.0,19,0.00,,,0.00,Wunderground v.1.15,2014-02-13 18:40:00,
2014-02-13 11:45:00,70.9,26.5,29.93,SE,134,5.0,6.0,19,0.00,,,0.00,Wunderground v.1.15,2014-02-13 18:45:00,
2014-02-13 11:50:00,71.3,25.6,29.93,SSE,159,5.0,5.0,18,0.00,,,0.00,Wunderground v.1.15,2014-02-13 18:50:00,
2014-02-13 11:55:00,71.7,25.9,29.93,SSE,166,4.0,5.0,18,0.00,,,0.00,Wunderground v.1.15,2014-02-13 18:55:00,
2014-02-13 12:05:00,72.0,26.1,29.92,SSE,153,4.0,5.0,18,0.00,,,0.00,Wunderground v.1.15,2014-02-13 19:05:00,
2014-02-13 12:15:00,73.3,25.8,29.92,WSW,238,4.0,4.0,17,0.00,,,0.00,Wunderground v.1.15,2014-02-13 19:15:00,
2014-02-13 12:20:00,73.1,25.7,29.92,SSE,166,4.0,4.0,17,0.00,,,0.00,Wunderground v.1.15,2014-02-13 19:20:00,
2014-02-13 12:25:00,73.2,25.7,29.91,WSW,255,4.0,6.0,17,0.00,,,0.00,Wunderground v.1.15,2014-02-13 19:25:00,
2014-02-13 12:30:00,73.7,26.1,29.91,SSW,202,5.0,5.0,17,0.00,,,0.00,Wunderground v.1.15,2014-02-13 19:30:00,
2014-02-13 12:40:00,73.7,26.1,29.90,SSE,160,5.0,5.0,17,0.00,,,0.00,Wunderground v.1.15,2014-02-13 19:40:00,
2014-02-13 12:45:00,74.4,26.7,29.90,South,183,4.0,5.0,17,0.00,,,0.00,Wunderground v.1.15,2014-02-13 19:45:00,
2014-02-13 12:50:00,74.6,25.4,29.89,SSW,201,4.0,9.0,16,0.00,,,0.00,Wunderground v.1.15,2014-02-13 19:50:00,
2014-02-13 12:55:00,74.3,25.2,29.89,SW,229,5.0,9.0,16,0.00,,,0.00,Wunderground v.1.15,2014-02-13 19:55:00,
2014-02-13 13:00:00,74.6,25.4,29.89,SSW,201,5.0,5.0,16,0.00,,,0.00,Wunderground v.1.15,2014-02-13 20:00:00,
2014-02-13 13:05:00,75.2,25.9,29.88,WSW,239,3.0,5.0,16,0.00,,,0.00,Wunderground v.1.15,2014-02-13 20:05:00,
2014-02-13 13:15:00,75.8,26.4,29.88,SSW,204,4.0,5.0,16,0.00,,,0.00,Wunderground v.1.15,2014-02-13 20:15:00,
2014-02-13 13:20:00,75.7,26.3,29.87,SE,146,4.0,5.0,16,0.00,,,0.00,Wunderground v.1.15,2014-02-13 20:20:00,
2014-02-13 13:25:00,76.3,26.8,29.87,SSW,208,4.0,5.0,16,0.00,,,0.00,Wunderground v.1.15,2014-02-13 20:25:00,
2014-02-13 13:30:00,76.1,26.6,29.86,SE,141,5.0,5.0,16,0.00,,,0.00,Wunderground v.1.15,2014-02-13 20:30:00,
2014-02-13 13:35:00,76.6,27.0,29.86,SW,214,6.0,6.0,16,0.00,,,0.00,Wunderground v.1.15,2014-02-13 20:35:00,
2014-02-13 13:45:00,77.0,27.3,29.85,West,259,5.0,11.0,16,0.00,,,0.00,Wunderground v.1.15,2014-02-13 20:45:00,
2014-02-13 13:50:00,77.4,26.1,29.85,SSW,195,6.0,10.0,15,0.00,,,0.00,Wunderground v.1.15,2014-02-13 20:50:00,
2014-02-13 13:55:00,77.2,27.5,29.85,SW,231,6.0,10.0,16,0.00,,,0.00,Wunderground v.1.15,2014-02-13 20:55:00,
2014-02-13 14:05:00,76.9,27.3,29.84,South,180,6.0,8.0,16,0.00,,,0.00,Wunderground v.1.15,2014-02-13 21:05:00,
2014-02-13 14:10:00,77.7,27.9,29.84,SW,225,5.0,5.0,16,0.00,,,0.00,Wunderground v.1.15,2014-02-13 21:10:00,
2014-02-13 14:20:00,78.0,28.1,29.84,SSE,159,6.0,6.0,16,0.00,,,0.00,Wunderground v.1.15,2014-02-13 21:20:00,
2014-02-13 14:25:00,78.4,28.5,29.84,SSW,201,6.0,9.0,16,0.00,,,0.00,Wunderground v.1.15,2014-02-13 21:25:00,
2014-02-13 14:30:00,78.3,28.4,29.83,South,191,6.0,6.0,16,0.00,,,0.00,Wunderground v.1.15,2014-02-13 21:30:00,
2014-02-13 14:35:00,78.1,28.2,29.83,SW,222,7.0,9.0,16,0.00,,,0.00,Wunderground v.1.15,2014-02-13 21:35:00,
2014-02-13 14:40:00,78.3,28.4,29.83,South,173,7.0,7.0,16,0.00,,,0.00,Wunderground v.1.15,2014-02-13 21:40:00,
2014-02-13 14:45:00,77.6,27.8,29.83,WSW,254,7.0,7.0,16,0.00,,,0.00,Wunderground v.1.15,2014-02-13 21:45:00,
2014-02-13 14:55:00,78.1,28.2,29.82,SSW,210,7.0,9.0,16,0.00,,,0.00,Wunderground v.1.15,2014-02-13 21:55:00,
2014-02-13 15:00:00,78.3,28.4,29.82,WSW,245,6.0,6.0,16,0.00,,,0.00,Wunderground v.1.15,2014-02-13 22:00:00,
2014-02-13 15:05:00,78.2,28.3,29.82,SSW,205,7.0,7.0,16,0.00,,,0.00,Wunderground v.1.15,2014-02-13 22:05:00,
2014-02-13 15:10:00,78.4,26.9,29.82,West,271,7.0,7.0,15,0.00,,,0.00,Wunderground v.1.15,2014-02-13 22:10:00,
2014-02-13 15:20:00,78.1,26.7,29.82,WSW,247,5.0,5.0,15,0.00,,,0.00,Wunderground v.1.15,2014-02-13 22:20:00,
2014-02-13 15:25:00,78.6,27.1,29.81,West,269,4.0,6.0,15,0.00,,,0.00,Wunderground v.1.15,2014-02-13 22:25:00,
2014-02-13 15:30:00,78.7,27.1,29.82,SSE,165,3.0,3.0,15,0.00,,,0.00,Wunderground v.1.15,2014-02-13 22:30:00,
2014-02-13 15:35:00,78.1,26.7,29.82,West,269,4.0,4.0,15,0.00,,,0.00,Wunderground v.1.15,2014-02-13 22:35:00,
2014-02-13 15:40:00,78.2,28.3,29.81,West,260,4.0,4.0,16,0.00,,,0.00,Wunderground v.1.15,2014-02-13 22:40:00,
2014-02-13 15:45:00,78.0,26.6,29.82,WNW,295,5.0,5.0,15,0.00,,,0.00,Wunderground v.1.15,2014-02-13 22:45:00,
2014-02-13 15:50:00,77.8,26.4,29.82,NW,307,5.0,5.0,15,0.00,,,0.00,Wunderground v.1.15,2014-02-13 22:50:00,
2014-02-13 16:00:00,78.8,27.2,29.82,WSW,238,4.0,6.0,15,0.00,,,0.00,Wunderground v.1.15,2014-02-13 23:00:00,
2014-02-13 16:05:00,78.1,26.7,29.82,WSW,250,4.0,7.0,15,0.00,,,0.00,Wunderground v.1.15,2014-02-13 23:05:00,
2014-02-13 16:10:00,77.6,26.3,29.81,South,179,5.0,5.0,15,0.00,,,0.00,Wunderground v.1.15,2014-02-13 23:10:00,
2014-02-13 16:15:00,77.4,26.1,29.81,South,191,5.0,5.0,15,0.00,,,0.00,Wunderground v.1.15,2014-02-13 23:15:00,
2014-02-13 16:20:00,77.5,26.2,29.81,SW,214,6.0,6.0,15,0.00,,,0.00,Wunderground v.1.15,2014-02-13 23:20:00,
2014-02-13 16:25:00,77.5,26.2,29.81,SSE,165,5.0,6.0,15,0.00,,,0.00,Wunderground v.1.15,2014-02-13 23:25:00,
2014-02-13 16:35:00,77.7,26.3,29.81,SW,231,6.0,7.0,15,0.00,,,0.00,Wunderground v.1.15,2014-02-13 23:35:00,
2014-02-13 16:40:00,77.7,26.3,29.82,SW,236,6.0,9.0,15,0.00,,,0.00,Wunderground v.1.15,2014-02-13 23:40:00,
2014-02-13 16:45:00,77.3,26.0,29.81,SSW,193,6.0,9.0,15,0.00,,,0.00,Wunderground v.1.15,2014-02-13 23:45:00,
2014-02-13 16:50:00,77.6,26.3,29.81,SE,138,5.0,5.0,15,0.00,,,0.00,Wunderground v.1.15,2014-02-13 23:50:00,
2014-02-13 17:00:00,77.0,25.8,29.82,SW,231,4.0,4.0,15,0.00,,,0.00,Wunderground v.1.15,2014-02-14 00:00:00,
2014-02-13 17:05:00,76.9,27.3,29.82,West,267,4.0,4.0,16,0.00,,,0.00,Wunderground v.1.15,2014-02-14 00:05:00,
2014-02-13 17:15:00,76.4,26.9,29.82,SW,232,5.0,7.0,16,0.00,,,0.00,Wunderground v.1.15,2014-02-14 00:15:00,
2014-02-13 17:20:00,76.2,25.1,29.82,West,273,6.0,6.0,15,0.00,,,0.00,Wunderground v.1.15,2014-02-14 00:20:00,
2014-02-13 17:25:00,75.8,26.4,29.82,North,351,5.0,6.0,16,0.00,,,0.00,Wunderground v.1.15,2014-02-14 00:25:00,
2014-02-13 17:30:00,75.5,26.1,29.83,North,352,4.0,5.0,16,0.00,,,0.00,Wunderground v.1.15,2014-02-14 00:30:00,
2014-02-13 17:40:00,75.1,25.8,29.82,NW,326,3.0,3.0,16,0.00,,,0.00,Wunderground v.1.15,2014-02-14 00:40:00,
2014-02-13 17:45:00,75.0,25.7,29.82,North,10,2.0,3.0,16,0.00,,,0.00,Wunderground v.1.15,2014-02-14 00:45:00,
2014-02-13 17:50:00,74.5,25.3,29.82,West,277,2.0,2.0,16,0.00,,,0.00,Wunderground v.1.15,2014-02-14 00:50:00,
2014-02-13 17:55:00,74.1,25.0,29.83,NW,314,3.0,3.0,16,0.00,,,0.00,Wunderground v.1.15,2014-02-14 00:55:00,
2014-02-13 18:00:00,73.7,26.1,29.82,NW,326,2.0,2.0,17,0.00,,,0.00,Wunderground v.1.15,2014-02-14 01:00:00,
2014-02-13 18:05:00,73.2,25.7,29.82,NW,316,1.0,2.0,17,0.00,,,0.00,Wunderground v.1.15,2014-02-14 01:05:00,
2014-02-13 18:10:00,72.8,25.4,29.83,NW,312,2.0,4.0,17,0.00,,,0.00,Wunderground v.1.15,2014-02-14 01:10:00,
2014-02-13 18:15:00,72.8,25.4,29.82,NNW,329,3.0,4.0,17,0.00,,,0.00,Wunderground v.1.15,2014-02-14 01:15:00,
2014-02-13 18:20:00,72.6,25.3,29.82,NW,326,3.0,3.0,17,0.00,,,0.00,Wunderground v.1.15,2014-02-14 01:20:00,
2014-02-13 18:25:00,72.5,25.2,29.82,NNW,339,3.0,3.0,17,0.00,,,0.00,Wunderground v.1.15,2014-02-14 01:25:00,
2014-02-13 18:30:00,72.0,26.1,29.82,NW,304,3.0,3.0,18,0.00,,,0.00,Wunderground v.1.15,2014-02-14 01:30:00,
2014-02-13 18:35:00,71.6,25.8,29.83,NW,326,3.0,3.0,18,0.00,,,0.00,Wunderground v.1.15,2014-02-14 01:35:00,
2014-02-13 18:45:00,71.3,25.6,29.83,NNW,327,3.0,4.0,18,0.00,,,0.00,Wunderground v.1.15,2014-02-14 01:45:00,
2014-02-13 18:50:00,70.9,25.2,29.83,NNW,338,4.0,4.0,18,0.00,,,0.00,Wunderground v.1.15,2014-02-14 01:50:00,
2014-02-13 18:55:00,70.7,25.1,29.83,NW,320,5.0,6.0,18,0.00,,,0.00,Wunderground v.1.15,2014-02-14 01:55:00,
2014-02-13 19:05:00,70.7,26.4,29.83,WNW,301,5.0,5.0,19,0.00,,,0.00,Wunderground v.1.15,2014-02-14 02:05:00,
2014-02-13 19:10:00,69.9,25.7,29.83,NW,323,4.0,4.0,19,0.00,,,0.00,Wunderground v.1.15,2014-02-14 02:10:00,
2014-02-13 19:15:00,69.4,25.3,29.82,NNW,328,3.0,4.0,19,0.00,,,0.00,Wunderground v.1.15,2014-02-14 02:15:00,
2014-02-13 19:20:00,69.7,25.6,29.83,NW,306,3.0,3.0,19,0.00,,,0.00,Wunderground v.1.15,2014-02-14 02:20:00,
2014-02-13 19:25:00,70.2,26.0,29.83,WNW,284,3.0,3.0,19,0.00,,,0.00,Wunderground v.1.15,2014-02-14 02:25:00,
2014-02-13 19:30:00,70.5,24.9,29.83,WNW,295,3.0,3.0,18,0.00,,,0.00,Wunderground v.1.15,2014-02-14 02:30:00,
2014-02-13 19:35:00,70.3,26.1,29.83,NW,314,3.0,3.0,19,0.00,,,0.00,Wunderground v.1.15,2014-02-14 02:35:00,
2014-02-13 19:40:00,69.9,25.7,29.83,NW,326,3.0,5.0,19,0.00,,,0.00,Wunderground v.1.15,2014-02-14 02:40:00,
2014-02-13 19:45:00,69.9,25.7,29.83,NNW,336,5.0,6.0,19,0.00,,,0.00,Wunderground v.1.15,2014-02-14 02:45:00,
2014-02-13 19:55:00,70.4,24.8,29.83,NNW,334,4.0,5.0,18,0.00,,,0.00,Wunderground v.1.15,2014-02-14 02:55:00,
2014-02-13 20:00:00,70.4,24.8,29.83,NW,326,5.0,5.0,18,0.00,,,0.00,Wunderground v.1.15,2014-02-14 03:00:00,
2014-02-13 20:10:00,69.3,25.2,29.83,NNW,330,5.0,5.0,19,0.00,,,0.00,Wunderground v.1.15,2014-02-14 03:10:00,
2014-02-13 20:15:00,69.0,25.0,29.83,NW,320,5.0,5.0,19,0.00,,,0.00,Wunderground v.1.15,2014-02-14 03:15:00,
2014-02-13 20:25:00,68.6,24.7,29.84,North,352,6.0,6.0,19,0.00,,,0.00,Wunderground v.1.15,2014-02-14 03:25:00,
2014-02-13 20:30:00,68.5,24.6,29.84,North,5,5.0,5.0,19,0.00,,,0.00,Wunderground v.1.15,2014-02-14 03:30:00,
2014-02-13 20:35:00,68.8,24.8,29.84,North,354,5.0,5.0,19,0.00,,,0.00,Wunderground v.1.15,2014-02-14 03:35:00,
2014-02-13 20:45:00,69.4,24.0,29.84,NNE,15,6.0,6.0,18,0.00,,,0.00,Wunderground v.1.15,2014-02-14 03:45:00,
2014-02-13 20:50:00,69.7,24.3,29.84,North,4,7.0,8.0,18,0.00,,,0.00,Wunderground v.1.15,2014-02-14 03:50:00,
2014-02-13 20:55:00,69.7,24.3,29.84,North,357,8.0,8.0,18,0.00,,,0.00,Wunderground v.1.15,2014-02-14 03:55:00,
2014-02-13 21:00:00,69.3,23.9,29.85,NNW,345,8.0,8.0,18,0.00,,,0.00,Wunderground v.1.15,2014-02-14 04:00:00,
2014-02-13 21:05:00,69.4,24.0,29.85,North,354,8.0,8.0,18,0.00,,,0.00,Wunderground v.1.15,2014-02-14 04:05:00,
2014-02-13 21:10:00,69.3,23.9,29.84,NW,326,7.0,7.0,18,0.00,,,0.00,Wunderground v.1.15,2014-02-14 04:10:00,
2014-02-13 21:15:00,68.8,23.5,29.83,NW,316,5.0,7.0,18,0.00,,,0.00,Wunderground v.1.15,2014-02-14 04:15:00,
2014-02-13 21:20:00,68.2,23.0,29.83,NW,311,5.0,5.0,18,0.00,,,0.00,Wunderground v.1.15,2014-02-14 04:20:00,
2014-02-13 21:25:00,67.8,22.7,29.84,NW,320,6.0,7.0,18,0.00,,,0.00,Wunderground v.1.15,2014-02-14 04:25:00,
2014-02-13 21:30:00,67.9,22.8,29.84,NNW,329,7.0,8.0,18,0.00,,,0.00,Wunderground v.1.15,2014-02-14 04:30:00,
2014-02-13 21:35:00,67.8,24.0,29.84,NW,319,8.0,8.0,19,0.00,,,0.00,Wunderground v.1.15,2014-02-14 04:35:00,
2014-02-13 21:45:00,67.2,24.7,29.84,NNW,329,7.0,8.0,20,0.00,,,0.00,Wunderground v.1.15,2014-02-14 04:45:00,
2014-02-13 21:50:00,66.6,24.2,29.84,NW,318,7.0,7.0,20,0.00,,,0.00,Wunderground v.1.15,2014-02-14 04:50:00,
2014-02-13 21:55:00,66.7,24.3,29.84,NW,326,6.0,7.0,20,0.00,,,0.00,Wunderground v.1.15,2014-02-14 04:55:00,
2014-02-13 22:00:00,66.7,24.3,29.84,NW,318,5.0,5.0,20,0.00,,,0.00,Wunderground v.1.15,2014-02-14 05:00:00,
2014-02-13 22:05:00,66.6,25.4,29.84,NW,319,4.0,5.0,21,0.00,,,0.00,Wunderground v.1.15,2014-02-14 05:05:00,
2014-02-13 22:10:00,66.5,25.3,29.84,NW,326,5.0,5.0,21,0.00,,,0.00,Wunderground v.1.15,2014-02-14 05:10:00,
2014-02-13 22:15:00,66.2,25.1,29.83,NW,316,4.0,5.0,21,0.00,,,0.00,Wunderground v.1.15,2014-02-14 05:15:00,
2014-02-13 22:20:00,65.6,24.6,29.83,NW,306,4.0,4.0,21,0.00,,,0.00,Wunderground v.1.15,2014-02-14 05:20:00,
2014-02-13 22:25:00,65.0,25.2,29.83,NW,308,3.0,4.0,22,0.00,,,0.00,Wunderground v.1.15,2014-02-14 05:25:00,
2014-02-13 22:30:00,64.9,25.1,29.83,WNW,297,4.0,6.0,22,0.00,,,0.00,Wunderground v.1.15,2014-02-14 05:30:00,
2014-02-13 22:35:00,65.4,25.5,29.84,WNW,301,5.0,7.0,22,0.00,,,0.00,Wunderground v.1.15,2014-02-14 05:35:00,
2014-02-13 22:40:00,65.4,25.5,29.83,WNW,298,6.0,7.0,22,0.00,,,0.00,Wunderground v.1.15,2014-02-14 05:40:00,
2014-02-13 22:45:00,65.5,24.5,29.84,NW,304,6.0,7.0,21,0.00,,,0.00,Wunderground v.1.15,2014-02-14 05:45:00,
2014-02-13 22:50:00,65.5,25.6,29.84,WNW,297,6.0,6.0,22,0.00,,,0.00,Wunderground v.1.15,2014-02-14 05:50:00,
2014-02-13 22:55:00,66.2,25.1,29.84,NW,304,6.0,6.0,21,0.00,,,0.00,Wunderground v.1.15,2014-02-14 05:55:00,
2014-02-13 23:00:00,66.7,25.5,29.84,WNW,301,6.0,6.0,21,0.00,,,0.00,Wunderground v.1.15,2014-02-14 06:00:00,
2014-02-13 23:10:00,66.0,24.9,29.85,NW,315,4.0,5.0,21,0.00,,,0.00,Wunderground v.1.15,2014-02-14 06:10:00,
2014-02-13 23:15:00,65.9,24.8,29.85,WNW,297,4.0,5.0,21,0.00,,,0.00,Wunderground v.1.15,2014-02-14 06:15:00,
2014-02-13 23:20:00,66.1,25.0,29.85,WNW,300,4.0,4.0,21,0.00,,,0.00,Wunderground v.1.15,2014-02-14 06:20:00,
2014-02-13 23:25:00,66.8,25.6,29.85,WNW,301,4.0,4.0,21,0.00,,,0.00,Wunderground v.1.15,2014-02-14 06:25:00,
2014-02-13 23:30:00,67.0,24.6,29.85,WNW,293,5.0,5.0,20,0.00,,,0.00,Wunderground v.1.15,2014-02-14 06:30:00,
2014-02-13 23:35:00,67.3,24.8,29.86,WNW,298,4.0,5.0,20,0.00,,,0.00,Wunderground v.1.15,2014-02-14 06:35:00,
2014-02-13 23:40:00,66.8,24.4,29.86,NNW,328,3.0,6.0,20,0.00,,,0.00,Wunderground v.1.15,2014-02-14 06:40:00,
2014-02-13 23:45:00,67.4,24.9,29.87,WNW,297,4.0,6.0,20,0.00,,,0.00,Wunderground v.1.15,2014-02-14 06:45:00,
2014-02-13 23:55:00,67.0,24.6,29.87,WNW,301,4.0,5.0,20,0.00,,,0.00,Wunderground v.1.15,2014-02-14 06:55:00,